Weather History for Santa Ana, CA

Change the Weather History Date:

Friday, November 23, 2012

  Actual Average Record
Temperature  
Mean Temperature 64 °F 60 °F  
Max Temperature 74 °F 69 °F 81 °F (2005)
Min Temperature 54 °F 50 °F 43 °F (1999)
Degree Days  
Heating Degree Days 1 6  
Month to date heating degree days 40 81  
Since 1 July heating degree days 40 108  
Cooling Degree Days 0 0  
Month to date cooling degree days 35 22  
Year to date cooling degree days 1336 876  
Growing Degree Days 14 (Base 50)    
Moisture  
Dew Point 54 °F    
Average Humidity 71    
Maximum Humidity 93    
Minimum Humidity 49    
Precipitation  
Precipitation 0.00 in 0.03 in 0.03 in (2010)
Month to date precipitation 0.25 1.02  
Year to date precipitation 4.44 11.02  
Since 1 July precipitation 0.57 2.06  
Snow  
Snow 0.00 in - - ()
Month to date snowfall 0.0  
Year to date snowfall 0.0  
Since 1 July snowfall 0.0  
Snow Depth 0.00 in    
Sea Level Pressure  
Sea Level Pressure 30.11 in    
Wind  
Wind Speed 1 mph (SSW)    
Max Wind Speed 10 mph    
Max Gust Speed 14 mph    
Visibility 2 miles    
Events Fog    
T = Trace of Precipitation, MM = Missing Value Source: NWS Daily Summary

Daily Weather History Graph

Daily Weather History Graph

Search for Another Location

Airport:

Trip Planner

Search our weather history database for the weather conditions in past years. The results will help you decide how hot, cold, wet, or windy it might be!

Date:

Astronomy

Nov. 23, 2012 Rise Set
Actual Time 6:31 AM PST 4:44 PM PST
Civil Twilight 6:04 AM PST 5:11 PM PST
Nautical Twilight 5:33 AM PST 5:41 PM PST
Astronomical Twilight 5:04 AM PST 6:11 PM PST
Moon 1:51 PM PST 2:05 AM PST
Length of Visible Light 11h 07m
Length of Day
10h 13m
Waxing Gibbous, 80% of the Moon is Illuminated
Nov 23
Waxing Gibbous
Nov 28
Full
Dec 6
Last Quarter
Dec 13
New
Dec 19
First Quarter

Hourly Weather History & Observations

Time (PST) Temp. Dew Point Humidity Pressure Visibility Wind Dir Wind Speed Gust Speed Precip Events Conditions
12:00 AM 57.2 °F 53.6 °F 88% 30.12 in 3.0 mi Calm Calm - N/A   Overcast
12:07 AM 57.2 °F 55.4 °F 94% 30.12 in 2.5 mi Calm Calm - N/A   Overcast
12:17 AM 57.2 °F 55.4 °F 94% 30.12 in 1.2 mi Calm Calm - N/A   Overcast
12:40 AM 55.4 °F 53.6 °F 94% 30.12 in 3.0 mi Calm Calm - N/A   Overcast
12:53 AM 57.0 °F 53.1 °F 87% 30.12 in 4.0 mi Calm Calm - N/A   Overcast
1:11 AM 55.4 °F 51.8 °F 88% 30.12 in 2.5 mi Calm Calm - N/A   Overcast
1:20 AM 55.4 °F 53.6 °F 94% 30.12 in 0.8 mi Calm Calm - N/A   Mist
1:42 AM 55.4 °F 53.6 °F 94% 30.12 in 0.2 mi Calm Calm - N/A Fog Fog
1:53 AM 55.9 °F 53.1 °F 90% 30.12 in 0.2 mi Calm Calm - N/A Fog Fog
2:53 AM 55.0 °F 53.1 °F 93% 30.12 in 0.2 mi Calm Calm - 0.01 in Fog Fog
3:53 AM 55.0 °F 53.1 °F 93% 30.12 in 0.2 mi Calm Calm - N/A Fog Fog
5:53 AM 55.9 °F 54.0 °F 93% 30.13 in 0.2 mi Calm Calm - N/A Fog Fog
6:23 AM 55.4 °F 53.6 °F 94% 30.13 in 0.5 mi Calm Calm - N/A Fog Fog
6:25 AM 55.4 °F 53.6 °F 94% 30.13 in 0.2 mi Calm Calm - N/A Fog Fog
6:53 AM 55.9 °F 53.1 °F 90% 30.14 in 0.2 mi Calm Calm - N/A Fog Fog
7:53 AM 55.0 °F 53.1 °F 93% 30.15 in 0.2 mi Calm Calm - N/A Fog Fog
8:53 AM 55.0 °F 53.1 °F 93% 30.16 in 0.2 mi Calm Calm - N/A Fog Fog
9:00 AM 55.4 °F 53.6 °F 94% 30.16 in 1.0 mi Calm Calm - N/A   Overcast
9:53 AM 57.0 °F 54.0 °F 89% 30.16 in 1.8 mi Calm Calm - N/A   Overcast
10:28 AM 60.8 °F 53.6 °F 77% 30.15 in 3.0 mi Calm Calm - N/A   Haze
10:51 AM 62.6 °F 53.6 °F 72% 30.14 in 4.0 mi Calm Calm - N/A   Haze
10:53 AM 63.0 °F 54.0 °F 72% 30.14 in 4.0 mi Calm Calm - N/A   Haze
11:53 AM 68.0 °F 55.0 °F 63% 30.12 in 5.0 mi SW 3.5 mph - N/A   Haze
12:53 PM 73.0 °F 54.0 °F 51% 30.09 in 5.0 mi Calm Calm - N/A   Haze
1:53 PM 73.0 °F 55.0 °F 53% 30.07 in 5.0 mi Variable 3.5 mph - N/A   Haze
2:53 PM 69.1 °F 55.9 °F 63% 30.07 in 5.0 mi SW 8.1 mph - N/A   Haze
3:53 PM 66.0 °F 55.0 °F 68% 30.06 in 4.0 mi SW 4.6 mph - N/A   Haze
4:53 PM 63.0 °F 55.0 °F 75% 30.06 in 5.0 mi SW 4.6 mph - N/A   Haze
5:53 PM 60.1 °F 55.0 °F 83% 30.07 in 4.0 mi SSW 5.8 mph - N/A   Haze
6:04 PM 59.0 °F 55.4 °F 88% 30.07 in 0.5 mi SSW 6.9 mph - N/A   Partly Cloudy
6:14 PM 59.0 °F 55.4 °F 88% 30.07 in 0.5 mi SSW 3.5 mph - N/A   Overcast
6:22 PM 59.0 °F 55.4 °F 88% 30.07 in 0.2 mi SW 5.8 mph - N/A Fog Fog
6:53 PM 59.0 °F 55.9 °F 90% 30.08 in 0.2 mi South 3.5 mph - N/A Fog Fog
7:53 PM 59.0 °F 55.9 °F 90% 30.09 in 0.2 mi SSW 4.6 mph - N/A Fog Fog
8:17 PM 59.0 °F 55.4 °F 88% 30.10 in 1.0 mi SSW 4.6 mph - N/A   Overcast
8:53 PM 59.0 °F 55.9 °F 90% 30.10 in 1.0 mi SW 3.5 mph - N/A   Overcast
9:53 PM 59.0 °F 55.9 °F 90% 30.11 in 0.8 mi South 3.5 mph - N/A   Overcast
10:53 PM 57.9 °F 55.9 °F 93% 30.11 in 0.2 mi Calm Calm - N/A Fog Fog
11:53 PM 59.0 °F 55.9 °F 90% 30.10 in 0.8 mi Calm Calm - N/A   Mist